PBO Station Position Time Series. Reference Frame : NAM14
Format Version,1.1.0
4-character ID,KELS
Station name,KELS_PNGA_WA1997
Begin Date, 1997-10-10
End Date, 2007-09-10
Release Date, 2019-08-30
Reference position, 46.1181768845 North Latitude, -122.8960699597 East Longitude, -15.92115 meters elevation,
Date, North (mm), East (mm), Vertical (mm), North Std. Deviation (mm), East Std. Deviation (mm),              Vertical Std. Deviation (mm), Quality,
1997-10-10,0.00, 0.00, 0.00, 3.03, 2.25, 10.78, repro,
1997-10-11,0.82, 2.16, -2.88, 3.03, 2.34, 10.55, repro,
1997-10-12,-1.90, -1.28, -5.40, 3.20, 2.47, 11.35, repro,
1997-10-13,-2.21, 1.44, 3.66, 3.32, 2.44, 11.41, repro,
1997-10-14,-0.32, 1.31, -1.38, 3.39, 2.47, 11.52, repro,
1997-10-15,-0.28, 1.70, 1.89, 3.36, 2.78, 12.98, repro,
1997-10-16,0.44, 2.27, -3.66, 3.20, 2.39, 11.21, repro,
1997-10-17,0.10, 2.40, 5.26, 3.31, 2.46, 11.95, repro,
1997-10-18,-2.38, 0.66, 4.09, 3.37, 2.36, 11.11, repro,
1997-10-19,-0.84, -0.98, -6.97, 3.27, 2.37, 11.51, repro,
1997-10-20,-1.50, -0.38, 10.54, 3.35, 2.36, 11.26, repro,
1997-10-21,1.51, 0.94, -15.07, 3.68, 2.72, 12.95, repro,
1997-10-22,-0.16, 1.80, 5.16, 3.32, 2.43, 11.71, repro,
1997-10-23,-1.29, -2.40, 6.19, 3.26, 2.47, 11.76, repro,
1997-10-24,-0.62, -0.22, 9.98, 3.53, 2.73, 11.86, repro,
1997-10-25,-0.56, 2.00, -4.09, 3.42, 2.60, 12.30, repro,
1997-10-26,3.20, 0.99, -3.92, 3.09, 2.40, 10.99, repro,
1997-10-27,0.90, 0.75, -9.20, 3.20, 2.34, 10.88, repro,
1997-10-28,1.94, -0.30, -10.74, 3.16, 2.50, 11.03, repro,
1997-10-29,1.93, 1.14, -9.26, 3.18, 2.52, 11.83, repro,
1997-10-30,-5.50, -1.39, -2.61, 3.30, 2.58, 11.77, repro,
1997-10-31,0.74, -0.95, 15.56, 3.41, 2.83, 12.73, repro,
1997-11-01,0.15, 0.97, -5.85, 3.18, 2.34, 10.88, repro,
1997-11-02,-3.78, 1.29, 6.51, 3.21, 2.63, 11.84, repro,
1997-11-03,-2.12, 1.91, 6.24, 3.43, 2.53, 12.29, repro,
1997-11-04,-0.34, 1.36, 2.47, 3.54, 2.52, 11.76, repro,
1997-11-05,3.53, -0.39, 7.28, 3.12, 2.46, 11.11, repro,
1997-11-06,-3.28, -0.20, 13.53, 4.45, 3.20, 16.11, repro,
1997-11-07,-1.64, 0.51, -1.02, 3.65, 3.02, 12.97, repro,
1997-11-08,-1.39, 0.66, -1.34, 3.08, 2.43, 11.48, repro,
1997-11-09,-0.08, 1.49, 4.57, 3.26, 2.43, 11.34, repro,
1997-11-10,-1.63, -2.29, 20.50, 3.33, 2.65, 12.88, repro,
1997-11-11,0.45, 1.15, 2.88, 3.40, 2.68, 12.74, repro,
1997-11-12,-2.75, 0.34, 22.12, 3.87, 2.71, 13.58, repro,
1997-11-13,1.29, 1.75, 7.17, 3.03, 2.48, 11.14, repro,
1997-11-14,-1.48, 0.07, 12.53, 3.23, 2.36, 11.14, repro,
1997-11-15,1.27, -1.72, -1.08, 4.04, 3.11, 14.24, repro,
1997-11-16,1.77, -0.19, -4.48, 3.15, 2.50, 11.27, repro,
1997-11-17,-4.35, 4.22, 14.21, 3.25, 2.39, 11.73, repro,
1997-11-18,-4.13, 0.09, 26.44, 3.73, 2.82, 13.65, repro,
1997-11-19,-5.81, 0.94, 12.48, 3.29, 2.56, 11.74, repro,
1997-11-20,-1.32, -1.23, 9.97, 3.99, 3.18, 14.85, repro,
1997-11-21,5.32, 3.08, 16.67, 4.14, 2.75, 13.45, repro,
1997-11-22,-3.97, 4.68, 5.47, 3.66, 2.69, 12.73, repro,
1997-11-23,-2.40, 1.65, 11.60, 3.85, 2.65, 12.84, repro,
1997-11-24,-3.82, 0.19, 21.31, 3.51, 2.63, 12.67, repro,
1997-11-25,-1.01, 2.90, 11.70, 3.11, 2.33, 11.42, repro,
1997-11-26,0.12, -0.33, 5.85, 3.66, 2.70, 13.05, repro,
1997-11-27,-0.55, -0.61, 20.70, 3.07, 2.37, 11.29, repro,
1997-11-28,-7.62, -1.32, 35.00, 3.47, 2.75, 12.64, repro,
1997-11-29,-0.85, 1.40, 8.01, 3.30, 2.51, 11.26, repro,
1997-11-30,1.36, 0.59, 23.25, 3.28, 2.57, 11.90, repro,
1997-12-01,0.34, 3.92, 5.90, 3.40, 2.51, 11.96, repro,
1997-12-02,-1.12, 2.16, 8.86, 3.19, 2.33, 11.05, repro,
1997-12-03,-1.60, 0.63, 11.26, 3.52, 2.59, 13.09, repro,
1997-12-04,0.84, 2.28, -1.75, 3.08, 2.38, 11.08, repro,
1997-12-05,-1.71, 1.44, 3.97, 3.21, 2.55, 12.39, repro,
1997-12-06,-3.02, -1.55, 2.27, 3.39, 2.48, 12.06, repro,
1997-12-07,2.56, -0.30, -3.34, 3.36, 2.54, 12.37, repro,
1997-12-08,-3.66, -1.68, 15.74, 3.20, 2.60, 12.18, repro,
1997-12-09,-0.91, 1.08, -3.41, 3.20, 2.38, 11.45, repro,
1997-12-10,-2.77, -0.11, 5.91, 3.53, 2.66, 12.49, repro,
1997-12-11,-2.17, 1.08, -8.50, 3.06, 2.42, 11.47, repro,
1997-12-12,-2.57, -0.28, -7.39, 3.04, 2.30, 10.91, repro,
1997-12-13,-3.44, 2.06, 4.80, 3.13, 2.27, 11.21, repro,
1997-12-14,-5.38, 1.94, 8.29, 3.11, 2.44, 11.52, repro,
1997-12-15,-1.99, -1.00, 19.43, 3.28, 2.53, 12.09, repro,
1997-12-16,-3.20, 0.38, 9.79, 3.06, 2.30, 10.98, repro,
1997-12-17,-6.10, 0.15, -8.08, 3.39, 2.48, 12.16, repro,
1997-12-18,2.52, 2.53, 5.94, 3.63, 2.90, 14.11, repro,
1997-12-19,-3.49, 1.13, -2.00, 3.16, 2.43, 11.40, repro,
1997-12-20,-1.30, 3.31, 2.87, 3.05, 2.48, 11.14, repro,
1997-12-21,-2.54, 0.06, -12.53, 3.49, 2.68, 13.13, repro,
1997-12-22,-2.85, 0.44, -10.28, 3.04, 2.29, 10.98, repro,
1997-12-23,-4.28, -3.04, -3.59, 3.61, 2.76, 13.18, repro,
1997-12-24,-3.76, 1.14, 3.21, 3.09, 2.48, 11.67, repro,
1997-12-25,2.95, 2.32, -6.06, 3.23, 2.42, 11.08, repro,
1997-12-26,2.46, 1.50, -4.31, 3.48, 2.62, 12.52, repro,
1997-12-27,0.42, 2.50, -19.05, 3.55, 2.83, 13.46, repro,
1997-12-28,-2.95, 3.82, -13.51, 2.97, 2.36, 10.68, repro,
1997-12-29,0.95, -0.47, -2.53, 3.00, 2.21, 10.69, repro,
1997-12-30,-0.61, 1.07, -3.38, 3.21, 2.65, 12.02, repro,
1997-12-31,-0.89, 2.43, -8.03, 3.00, 2.25, 10.55, repro,
1998-01-01,-2.82, -1.07, -0.57, 3.12, 2.36, 10.97, repro,
1998-01-02,1.43, 0.46, 2.33, 3.35, 2.61, 12.07, repro,
1998-01-03,-1.98, 1.17, 4.05, 3.04, 2.16, 10.61, repro,
1998-01-04,0.41, 0.04, -0.26, 2.99, 2.37, 11.21, repro,
1998-01-05,0.00, -1.01, 0.19, 3.27, 2.62, 12.48, repro,
1998-01-06,1.03, 2.17, -7.16, 3.41, 2.64, 12.29, repro,
1998-01-07,4.00, 0.88, -3.15, 3.25, 2.64, 12.32, repro,
1998-01-08,-1.00, -0.22, -8.87, 3.26, 2.60, 12.62, repro,
1998-01-09,0.25, 1.49, -7.97, 3.28, 2.69, 12.76, repro,
1998-01-10,0.26, 2.94, -4.55, 2.96, 2.35, 10.98, repro,
1998-01-11,-3.99, 5.70, -24.96, 3.41, 2.65, 12.84, repro,
1998-01-12,-2.54, 3.69, -21.01, 3.13, 2.41, 11.40, repro,
1998-01-13,-3.32, 5.63, 4.75, 3.14, 2.43, 11.22, repro,
1998-01-14,-2.62, 1.08, 6.96, 3.00, 2.45, 11.13, repro,
1998-01-15,1.35, 0.50, -4.39, 3.19, 2.52, 11.76, repro,
1998-01-16,-1.00, 2.68, -0.63, 4.03, 3.61, 16.53, repro,
1998-01-17,-0.46, 0.69, 12.36, 3.27, 2.38, 11.72, repro,
1998-01-18,-1.88, 3.17, 11.73, 3.23, 2.49, 11.97, repro,
1998-01-19,0.37, 1.33, 11.99, 2.93, 2.36, 10.64, repro,
1998-01-20,3.20, 2.04, 1.28, 3.16, 2.35, 11.41, repro,
1998-01-21,-1.26, 1.45, -5.17, 3.16, 2.47, 11.57, repro,
1998-01-22,-0.15, 4.08, -6.75, 3.09, 2.32, 11.11, repro,
1998-01-23,-6.85, 0.45, -9.60, 3.08, 2.28, 11.02, repro,
1998-01-24,-3.54, -0.74, 8.29, 3.09, 2.45, 11.05, repro,
1998-01-25,-0.88, -0.15, 8.11, 2.94, 2.24, 10.54, repro,
1998-01-26,-1.21, 0.82, -15.92, 3.25, 2.49, 12.10, repro,
1998-01-27,-3.52, -0.41, -5.53, 3.30, 2.50, 11.60, repro,
1998-01-28,-0.72, -0.43, -0.72, 3.29, 2.42, 11.62, repro,
1998-01-29,-4.51, 3.30, -12.08, 3.11, 2.42, 11.24, repro,
1998-01-30,-2.67, 1.58, -4.51, 3.13, 2.36, 11.33, repro,
1998-01-31,-3.41, 0.92, -0.10, 3.04, 2.35, 10.81, repro,
1998-02-01,-5.01, -0.31, -7.62, 3.10, 2.48, 11.55, repro,
1998-02-02,-2.86, 0.68, -6.50, 3.00, 2.36, 11.04, repro,
1998-02-03,-2.83, 0.79, -1.88, 3.09, 2.42, 11.19, repro,
1998-02-04,-3.58, -1.07, 3.58, 2.99, 2.24, 10.54, repro,
1998-02-05,-5.45, 1.90, 5.15, 3.35, 2.56, 12.04, repro,
1998-02-06,-2.30, 1.23, 3.34, 2.99, 2.52, 11.29, repro,
1998-02-07,-5.91, 1.15, -4.82, 3.04, 2.28, 11.11, repro,
1998-02-08,-7.92, -0.66, 7.60, 2.88, 2.24, 10.54, repro,
1998-02-09,-5.08, -0.06, -7.42, 3.16, 2.40, 10.82, repro,
1998-02-10,-3.39, 0.85, -8.38, 3.12, 2.28, 10.75, repro,
1998-02-11,-2.48, -0.14, -14.06, 3.16, 2.29, 11.06, repro,
1998-02-12,-4.18, 2.40, 3.97, 3.31, 2.67, 12.11, repro,
1998-02-13,-1.51, 2.17, -11.41, 2.82, 2.17, 10.08, repro,
1998-02-14,-3.73, 0.25, -0.74, 3.10, 2.26, 10.91, repro,
1998-02-15,-4.19, -0.15, 12.42, 2.93, 2.36, 10.65, repro,
1998-02-16,-1.04, 2.74, 5.35, 2.94, 2.14, 10.08, repro,
1998-02-17,-1.47, 0.74, 8.45, 3.47, 2.36, 11.48, repro,
1998-02-18,0.85, 5.33, 5.64, 3.50, 2.56, 11.67, repro,
1998-02-19,-7.17, -3.07, 0.35, 3.06, 2.25, 10.98, repro,
1998-02-20,-3.78, 1.61, -2.46, 3.06, 2.30, 10.54, repro,
1998-02-21,-4.37, -0.39, -2.23, 3.19, 2.54, 11.37, repro,
1998-02-22,-2.12, 1.61, -1.99, 2.92, 2.15, 10.05, repro,
1998-02-23,-1.81, 0.88, 0.72, 3.04, 2.33, 10.99, repro,
1998-02-24,-3.95, 0.36, 4.94, 2.79, 2.10, 9.72, repro,
1998-02-25,-3.51, 0.47, -8.79, 3.08, 2.35, 11.24, repro,
1998-02-26,-2.49, -0.09, -1.82, 2.72, 2.18, 9.88, repro,
1998-02-27,-4.75, 2.27, 0.61, 2.75, 2.21, 10.21, repro,
1998-02-28,1.49, 3.55, -8.25, 2.77, 2.18, 9.93, repro,
1998-03-01,0.25, 1.98, -3.86, 2.90, 2.26, 10.23, repro,
1998-03-02,-2.47, 3.73, -14.72, 2.80, 2.05, 9.35, repro,
1998-03-03,-1.72, 0.74, -0.66, 2.72, 2.13, 9.85, repro,
1998-03-04,-2.44, 0.49, -7.74, 2.73, 2.08, 9.65, repro,
1998-03-05,-2.73, 1.11, -6.10, 2.73, 2.10, 9.42, repro,
1998-03-06,-1.72, 1.65, -3.36, 2.61, 1.99, 9.12, repro,
1998-03-07,-4.81, 0.53, -7.94, 2.87, 2.27, 10.55, repro,
1998-03-08,-2.60, 1.69, -9.41, 2.81, 2.17, 9.83, repro,
1998-03-09,-3.12, 3.55, -13.17, 2.64, 2.03, 9.41, repro,
1998-03-10,-3.24, 3.29, -25.59, 3.07, 2.53, 11.83, repro,
1998-03-11,-1.02, 4.19, -6.62, 2.77, 2.08, 9.45, repro,
1998-03-12,-2.20, 1.36, 0.06, 2.65, 2.14, 9.61, repro,
1998-03-13,-3.08, 1.87, -17.66, 2.76, 2.10, 9.88, repro,
1998-03-14,-5.04, 1.87, -9.93, 2.72, 2.09, 9.66, repro,
1998-03-15,-5.08, 4.20, -12.66, 2.74, 2.22, 10.28, repro,
1998-03-16,-5.04, 1.94, -15.13, 2.73, 2.17, 10.00, repro,
1998-03-17,-3.24, 1.68, -7.80, 2.60, 2.03, 9.24, repro,
1998-03-18,-3.18, 0.98, -3.55, 2.49, 1.93, 8.56, repro,
1998-03-19,-5.04, 1.74, -4.12, 2.41, 1.88, 8.13, repro,
1998-03-20,-3.29, 1.33, -5.16, 2.60, 2.09, 9.22, repro,
1998-03-21,-1.63, -0.38, -9.94, 2.81, 2.06, 9.86, repro,
1998-03-22,-0.27, 1.47, -6.87, 2.73, 2.05, 9.45, repro,
1998-03-23,-5.69, 3.55, 0.66, 2.83, 2.21, 10.24, repro,
1998-03-24,-5.15, 1.25, -1.35, 2.81, 2.27, 10.31, repro,
1998-03-25,-1.82, 0.00, -3.75, 2.76, 2.08, 9.76, repro,
1998-03-26,-3.67, 1.91, -4.68, 2.76, 2.08, 9.51, repro,
1998-03-27,-3.99, -0.18, 5.81, 2.84, 2.13, 10.11, repro,
1998-03-28,-4.08, 1.48, -0.63, 2.73, 2.10, 9.20, repro,
1998-03-29,-4.61, 0.86, 5.08, 2.67, 2.04, 9.33, repro,
1998-03-30,-3.25, 1.21, -2.98, 2.51, 1.90, 8.36, repro,
1998-03-31,-2.77, 1.25, -8.36, 2.50, 1.87, 8.20, repro,
1998-04-01,-2.94, 1.46, -3.29, 2.51, 1.89, 8.29, repro,
1998-04-02,-4.12, 1.79, -5.66, 2.54, 1.93, 8.30, repro,
1998-04-03,-2.21, 2.15, -5.69, 2.59, 1.96, 8.39, repro,
1998-04-04,-3.86, 2.53, -2.72, 2.53, 1.92, 8.35, repro,
1998-04-05,-3.40, 1.63, -1.00, 2.49, 1.92, 8.35, repro,
1998-04-06,-3.95, 2.34, -4.83, 2.59, 1.98, 8.69, repro,
1998-04-07,-2.99, 1.39, -5.68, 2.67, 2.02, 8.78, repro,
1998-04-08,-1.96, 1.11, -13.39, 2.69, 2.09, 9.32, repro,
1998-04-09,-2.87, 0.87, -9.23, 2.68, 2.10, 9.41, repro,
1998-04-10,-2.80, -0.79, -9.85, 2.51, 1.87, 8.09, repro,
1998-04-11,-1.71, 0.89, -6.61, 2.63, 2.05, 8.95, repro,
1998-04-12,-1.17, 1.75, -4.84, 2.54, 1.99, 8.53, repro,
1998-04-13,-3.66, 1.17, -2.41, 2.48, 1.87, 8.12, repro,
1998-04-14,-2.26, 0.71, -10.91, 2.44, 1.85, 8.06, repro,
1998-04-15,-2.36, 0.95, -9.87, 2.55, 1.91, 8.51, repro,
1998-04-16,-2.46, 1.50, -8.29, 2.47, 1.88, 8.11, repro,
1998-04-17,-2.78, 2.78, -10.06, 2.56, 1.97, 8.51, repro,
1998-04-18,-2.80, 2.12, -1.75, 2.51, 1.95, 8.71, repro,
1998-04-19,-3.66, 1.40, -15.45, 2.48, 1.91, 8.42, repro,
1998-04-20,-1.81, 1.95, -6.96, 2.52, 1.93, 8.85, repro,
1998-04-21,-2.87, -0.21, -3.55, 2.70, 2.04, 9.29, repro,
1998-04-22,-2.20, 1.23, -10.09, 2.64, 2.02, 9.47, repro,
1998-04-23,-0.10, 0.93, -4.38, 2.54, 1.97, 8.78, repro,
1998-04-24,-3.71, -0.83, -4.99, 2.67, 2.05, 9.50, repro,
1998-04-25,-2.54, 1.00, 0.93, 2.55, 1.95, 8.77, repro,
1998-04-26,-2.73, -0.23, -10.23, 2.45, 1.90, 8.35, repro,
1998-04-27,-2.90, 3.05, -12.21, 2.64, 2.07, 9.33, repro,
1998-04-28,-3.69, 1.80, -13.15, 2.68, 2.10, 9.50, repro,
1998-04-29,-3.00, 2.36, 0.52, 2.66, 2.00, 9.01, repro,
1998-04-30,-1.57, 1.62, -4.09, 2.54, 1.95, 8.88, repro,
1998-05-01,-0.70, 1.47, 0.53, 2.73, 2.11, 9.81, repro,
1998-05-02,-2.97, 1.71, 14.00, 2.79, 2.17, 10.03, repro,
1998-05-03,-3.79, 1.26, 6.53, 2.89, 2.23, 10.35, repro,
1998-05-04,-3.43, 1.77, -1.47, 2.91, 2.20, 10.20, repro,
1998-05-05,-3.05, 0.93, 9.96, 2.80, 2.21, 10.16, repro,
1998-05-06,-1.71, -0.49, 3.99, 2.89, 2.21, 10.65, repro,
1998-05-07,-1.78, 0.54, 2.14, 2.81, 2.18, 10.26, repro,
1998-05-08,-4.54, 0.49, 13.43, 2.71, 2.11, 9.53, repro,
1998-05-09,-2.56, 0.71, 0.31, 2.71, 2.14, 9.86, repro,
1998-05-10,-2.82, -0.28, 4.38, 2.47, 1.94, 8.53, repro,
1998-05-11,-1.25, 0.28, 6.82, 2.47, 2.07, 8.26, repro,
1998-05-12,-2.57, -0.78, 8.98, 2.50, 1.91, 8.55, repro,
1998-05-13,-5.30, 0.47, 5.97, 2.48, 1.91, 8.46, repro,
1998-05-14,-2.81, 1.10, 9.80, 2.64, 1.98, 8.85, repro,
1998-05-15,-4.33, 0.99, 5.47, 2.79, 2.30, 10.78, repro,
1998-05-16,0.16, 0.39, -0.30, 2.71, 2.06, 9.58, repro,
1998-05-17,-1.95, -0.35, 2.47, 2.69, 2.34, 9.66, repro,
1998-05-18,-0.96, 1.69, -6.72, 2.64, 2.09, 9.31, repro,
1998-05-19,-4.26, 2.47, 1.61, 2.40, 1.86, 8.13, repro,
1998-05-20,-1.98, 1.04, 1.78, 2.38, 1.81, 7.99, repro,
1998-05-21,-0.46, 0.88, -1.54, 2.63, 2.07, 8.88, repro,
1998-05-22,-1.25, 0.36, -3.50, 2.69, 2.50, 9.92, repro,
1998-05-23,-2.90, -0.02, -5.21, 2.84, 2.36, 9.87, repro,
1998-05-24,-2.06, 1.31, -7.59, 2.75, 2.09, 9.58, repro,
1998-05-25,-0.64, 1.32, -1.98, 2.79, 2.14, 9.53, repro,
1998-05-26,-1.49, 0.97, 3.46, 2.91, 2.29, 10.31, repro,
1998-05-27,-2.10, 0.26, 3.47, 2.75, 2.20, 9.37, repro,
1998-05-28,-2.74, 0.91, -1.19, 2.66, 2.04, 9.03, repro,
1998-05-29,-4.68, 2.96, -3.04, 2.48, 1.88, 8.23, repro,
1998-05-30,-3.71, 1.95, 0.87, 2.59, 2.00, 8.46, repro,
1998-05-31,-2.11, 0.84, 1.84, 2.45, 1.90, 8.43, repro,
1998-06-01,-2.11, 2.14, 4.43, 2.40, 1.84, 8.02, repro,
1998-06-02,-2.97, 1.40, 2.27, 2.46, 1.95, 8.34, repro,
1998-06-03,-3.06, 2.08, 0.42, 2.79, 2.16, 9.63, repro,
1998-06-04,-4.06, -0.58, 9.36, 2.59, 2.04, 9.17, repro,
1998-06-05,-2.41, 0.73, 9.41, 2.67, 2.19, 9.73, repro,
1998-06-06,-1.65, 1.16, 5.15, 2.54, 1.97, 8.66, repro,
1998-06-07,-3.58, 0.77, -7.43, 2.51, 1.93, 8.73, repro,
1998-06-08,-1.70, 0.96, 4.81, 2.48, 1.86, 8.16, repro,
1998-06-09,-2.48, 2.05, -0.21, 2.41, 1.83, 7.98, repro,
1998-06-10,-2.18, 0.80, 14.53, 2.54, 1.96, 8.38, repro,
1998-06-11,-2.12, 2.03, 10.66, 2.47, 1.91, 8.44, repro,
1998-06-12,-3.84, 2.58, 14.54, 2.43, 1.85, 8.08, repro,
1998-06-13,-5.07, 0.20, 0.54, 2.44, 1.87, 8.22, repro,
1998-06-14,-2.52, 1.16, -1.14, 2.60, 1.97, 8.18, repro,
1998-06-15,-4.64, -0.28, 8.58, 2.50, 2.00, 8.53, repro,
1998-06-16,-0.46, -0.33, 10.40, 2.67, 2.27, 9.34, repro,
1998-06-17,-3.77, 1.80, 4.91, 2.54, 1.99, 8.74, repro,
1998-06-18,-3.69, 1.75, 16.13, 2.61, 1.99, 8.99, repro,
1998-06-19,-3.46, 0.00, 7.29, 2.70, 2.09, 9.03, repro,
1998-06-20,-2.72, 1.04, -1.23, 2.69, 2.18, 9.22, repro,
1998-06-21,-4.39, 0.64, 1.66, 2.64, 2.02, 9.31, repro,
1998-06-22,-5.13, 1.42, 5.58, 2.70, 1.99, 9.18, repro,
1998-06-23,-4.94, 0.86, 16.11, 2.67, 2.03, 9.03, repro,
1998-06-24,-2.40, 0.78, 15.90, 2.69, 2.04, 9.08, repro,
1998-06-25,-4.81, -0.05, 6.92, 2.66, 2.11, 9.22, repro,
1998-06-26,-4.39, 0.98, 3.91, 2.70, 2.07, 9.22, repro,
1998-06-27,-2.78, 0.16, 4.31, 2.57, 2.02, 8.77, repro,
1998-06-28,-4.20, -0.26, 2.60, 2.70, 2.01, 9.13, repro,
1998-06-29,-2.64, 0.20, 4.26, 2.54, 2.04, 8.61, repro,
1998-06-30,-3.66, 0.34, 2.65, 2.42, 1.85, 8.11, repro,
1998-07-01,-3.90, 1.55, 2.51, 2.57, 1.95, 8.72, repro,
1998-07-02,-3.92, 0.25, 5.17, 2.42, 1.86, 8.17, repro,
1998-07-03,-3.15, -0.07, 7.53, 2.49, 1.89, 8.36, repro,
1998-07-04,-3.76, 1.26, 7.53, 2.38, 1.82, 7.93, repro,
1998-07-05,-4.63, 0.51, 2.25, 2.48, 1.88, 8.24, repro,
1998-07-06,-5.34, -0.56, 4.08, 2.50, 1.96, 8.65, repro,
1998-07-07,-3.87, 0.04, 2.63, 2.47, 1.86, 8.12, repro,
1998-07-08,-5.26, 0.08, 12.72, 2.48, 1.85, 8.35, repro,
1998-07-09,-2.56, 0.29, 5.77, 2.47, 1.87, 8.34, repro,
1998-07-10,-3.29, 1.78, 4.81, 2.48, 1.97, 8.38, repro,
1998-07-11,-4.05, -0.16, 7.70, 2.44, 1.88, 8.32, repro,
1998-07-12,-2.08, 1.18, -1.87, 2.43, 1.94, 8.56, repro,
1998-07-13,-5.37, 0.46, 4.41, 2.44, 1.85, 8.31, repro,
1998-07-14,-0.92, 0.40, 5.22, 2.43, 1.84, 8.12, repro,
1998-07-15,-4.78, 0.99, 6.44, 2.42, 1.83, 8.07, repro,
1998-07-16,-2.23, 1.99, 4.30, 2.40, 1.89, 8.17, repro,
1998-07-17,-1.93, 1.77, 1.18, 2.48, 1.90, 8.52, repro,
1998-07-18,-3.60, 3.20, 4.88, 2.50, 1.88, 8.24, repro,
1998-07-19,-4.52, -0.70, 5.52, 2.41, 1.85, 8.16, repro,
1998-07-20,-1.52, 1.05, 6.93, 2.61, 1.95, 8.78, repro,
1998-07-21,-2.00, 2.97, 2.82, 2.53, 2.00, 8.97, repro,
1998-07-22,-4.66, 1.97, 13.09, 2.66, 2.03, 9.02, repro,
1998-07-23,-1.87, 1.10, 11.77, 2.74, 2.22, 9.99, repro,
1998-07-24,-2.08, 1.34, 9.16, 2.53, 1.94, 8.67, repro,
1998-07-25,-3.23, 2.89, 4.18, 2.61, 1.99, 8.97, repro,
1998-07-26,-4.71, 1.01, -1.18, 2.65, 2.16, 9.78, repro,
1998-07-27,-2.88, 0.49, 4.50, 2.45, 1.86, 8.28, repro,
1998-07-28,-3.09, 1.82, 11.37, 2.62, 2.05, 9.27, repro,
1998-07-29,-2.54, -1.08, -1.78, 2.78, 2.24, 10.26, repro,
1998-07-30,-1.22, 0.03, -1.43, 2.84, 2.27, 10.57, repro,
1998-07-31,-3.50, 1.43, -0.26, 2.82, 2.26, 10.22, repro,
1998-08-01,-0.78, -1.37, 3.08, 2.78, 2.24, 10.30, repro,
1998-08-02,-2.56, 0.61, -0.51, 2.80, 2.22, 10.07, repro,
1998-08-03,-3.43, 1.16, -0.58, 2.72, 2.11, 9.63, repro,
1998-08-04,-1.18, 0.70, 6.23, 2.73, 2.17, 9.81, repro,
1998-08-05,-3.34, 2.20, 13.77, 2.73, 2.10, 9.41, repro,
1998-08-06,-2.94, 1.17, 0.29, 2.83, 2.28, 10.31, repro,
1998-08-07,-1.16, -1.04, 4.93, 3.07, 2.51, 10.37, repro,
1998-08-08,-4.12, 2.07, 7.44, 3.10, 2.56, 10.97, repro,
1998-08-09,-3.08, -1.10, 9.83, 2.96, 2.29, 10.15, repro,
1998-08-10,-0.50, 0.56, -5.74, 2.80, 2.34, 9.83, repro,
1998-08-11,-2.05, -0.11, 4.91, 2.86, 2.22, 9.81, repro,
1998-08-12,-4.66, -0.54, -3.73, 2.97, 2.34, 10.89, repro,
1998-08-13,-4.55, 1.41, 5.03, 2.85, 2.24, 10.20, repro,
1998-08-14,-3.72, 0.48, 18.27, 3.12, 2.51, 10.98, repro,
1998-08-15,-2.97, 1.24, 20.19, 2.90, 2.25, 10.38, repro,
1998-08-16,-2.85, -2.27, -1.91, 3.01, 2.33, 10.69, repro,
1998-08-17,-2.89, -0.23, 4.42, 2.87, 2.17, 10.00, repro,
1998-08-18,-2.63, -1.55, 8.53, 2.95, 2.41, 10.56, repro,
1998-08-19,-0.97, 1.51, 11.97, 2.95, 2.22, 10.16, repro,
1998-08-20,-0.98, -2.53, -1.69, 3.05, 2.75, 10.81, repro,
1998-08-21,-4.61, 0.05, 1.71, 2.99, 2.35, 10.37, repro,
1998-08-22,-0.15, 0.34, -1.47, 3.21, 2.61, 12.02, repro,
1998-08-23,-2.12, 2.97, 17.23, 3.14, 2.49, 11.39, repro,
1998-08-24,-3.27, 0.36, 6.84, 3.00, 2.43, 10.57, repro,
1998-08-25,-1.36, -2.11, -0.15, 2.95, 2.80, 10.27, repro,
1998-08-26,-2.19, -0.78, 8.24, 2.96, 2.43, 10.81, repro,
1998-08-27,-2.62, 1.26, 7.03, 3.10, 2.63, 10.71, repro,
1998-08-28,-5.52, -2.75, 11.56, 3.21, 2.88, 11.60, repro,
1998-08-29,-4.80, 2.46, -0.25, 3.09, 2.37, 10.95, repro,
1998-08-30,-6.49, 1.13, 18.98, 3.05, 2.34, 10.42, repro,
1998-08-31,-3.45, -0.93, 11.04, 2.87, 2.63, 10.18, repro,
1998-09-01,-5.26, 0.25, 5.58, 3.15, 2.54, 11.75, repro,
1998-09-02,-5.06, -0.64, 14.15, 2.88, 2.25, 10.00, repro,
1998-09-03,-1.53, 0.22, 12.73, 3.15, 2.58, 11.00, repro,
1998-09-04,-3.21, -1.40, 12.20, 3.06, 2.51, 11.20, repro,
1998-09-05,-3.58, -1.19, 13.17, 2.87, 2.71, 10.43, repro,
1998-09-06,-0.59, 0.28, 12.17, 2.96, 2.64, 10.18, repro,
1998-09-07,-4.96, -0.78, 21.18, 3.21, 2.75, 11.82, repro,
1998-09-08,-3.73, 0.42, 16.57, 3.23, 2.50, 11.41, repro,
1998-09-09,-3.79, -3.53, 17.93, 3.21, 2.64, 11.74, repro,
1998-09-10,-3.01, 1.78, 19.77, 3.25, 2.68, 12.01, repro,
1998-09-11,-3.39, -0.07, 8.95, 3.27, 2.65, 10.95, repro,
1998-09-12,-3.47, 0.71, 10.99, 2.92, 2.37, 10.71, repro,
1998-09-13,-1.05, -3.52, 4.04, 2.95, 2.57, 10.55, repro,
1998-09-14,-3.51, -0.02, 19.79, 3.14, 2.77, 10.90, repro,
1998-09-15,-1.72, -3.57, 25.52, 3.27, 2.95, 11.70, repro,
1998-09-16,-3.39, -0.59, 18.36, 3.06, 2.63, 10.75, repro,
1998-09-17,-3.07, -0.98, 15.95, 3.28, 2.41, 11.21, repro,
1998-09-18,-5.92, 1.76, 14.30, 3.22, 2.59, 11.65, repro,
1998-09-19,-2.76, 1.06, 5.46, 3.31, 2.55, 11.43, repro,
1998-09-20,-3.62, 2.08, 16.12, 3.19, 3.09, 11.48, repro,
1998-09-21,-2.50, 1.46, 5.40, 3.16, 2.50, 11.02, repro,
1998-09-22,-0.66, 2.73, 13.15, 3.25, 2.75, 12.00, repro,
1998-09-23,-4.08, 0.26, 9.60, 3.96, 3.13, 13.11, repro,
1998-09-24,-2.24, -0.87, 6.81, 3.29, 2.59, 11.55, repro,
1998-09-25,-4.01, -0.67, 19.78, 3.21, 2.55, 11.36, repro,
1998-09-26,-3.57, 0.66, 2.23, 3.14, 2.65, 10.76, repro,
1998-09-27,-1.63, 1.48, 10.55, 3.71, 3.08, 11.95, repro,
1998-09-28,-3.49, 0.65, 5.40, 3.36, 2.88, 11.07, repro,
1998-09-29,-3.01, 2.04, 1.53, 3.27, 2.85, 10.94, repro,
1998-09-30,-4.75, 0.71, 17.38, 3.37, 2.80, 11.68, repro,
1998-10-01,-2.97, 1.98, 1.82, 2.92, 2.34, 10.51, repro,
1998-10-02,-2.49, -0.02, 10.88, 3.09, 2.45, 10.66, repro,
1998-10-03,-2.10, 0.55, 4.86, 3.23, 2.53, 11.32, repro,
1998-10-04,-5.73, 0.42, 4.57, 3.32, 2.94, 11.06, repro,
1998-10-05,-3.92, 1.68, 13.61, 3.41, 2.80, 12.40, repro,
1998-10-06,-5.40, -0.86, 15.83, 3.11, 2.62, 10.91, repro,
1998-10-07,-5.77, -1.93, 16.76, 3.14, 2.43, 10.44, repro,
1998-10-08,-5.28, 2.48, 8.44, 3.11, 2.48, 10.80, repro,
1998-10-09,-1.70, 0.20, -9.55, 3.34, 2.57, 11.24, repro,
1998-10-10,-3.08, 1.72, 1.40, 3.50, 2.89, 11.48, repro,
1998-10-11,-3.81, 2.95, 22.08, 3.39, 2.80, 12.54, repro,
1998-10-12,-2.10, 3.67, 17.61, 3.13, 2.59, 11.20, repro,
1998-10-13,-2.06, 1.69, 17.96, 3.21, 2.44, 10.78, repro,
1998-10-14,-1.14, -1.17, 8.83, 3.51, 2.71, 12.46, repro,
1998-10-15,-1.02, 3.18, 14.03, 3.20, 2.60, 10.78, repro,
1998-10-16,-3.68, 2.61, 5.04, 3.76, 2.95, 12.86, repro,
1998-10-17,-2.85, 1.90, -7.03, 3.02, 2.34, 10.49, repro,
1998-10-18,4.09, 2.54, 4.46, 3.41, 2.81, 11.27, repro,
1998-10-19,0.44, 1.36, -20.94, 3.39, 2.99, 12.26, repro,
1998-10-20,-1.43, -1.78, 2.80, 3.36, 2.69, 11.63, repro,
1998-10-21,-1.65, 0.42, 4.00, 3.28, 2.61, 10.68, repro,
1998-10-22,2.05, -0.67, -4.07, 3.46, 3.18, 11.33, repro,
1998-10-23,0.73, 0.53, 7.10, 4.07, 3.20, 13.04, repro,
1998-10-24,-2.58, 0.05, 7.45, 3.14, 2.53, 10.78, repro,
1998-10-25,-3.34, 2.27, 4.29, 2.92, 2.37, 10.63, repro,
1998-10-26,5.75, 0.42, 11.92, 3.12, 2.77, 11.04, repro,
1998-10-27,-2.37, 2.03, -1.26, 3.54, 2.74, 11.77, repro,
1998-10-28,0.62, -1.40, -4.64, 2.95, 2.34, 10.06, repro,
1998-10-29,-1.30, 1.80, 5.70, 3.24, 2.65, 11.18, repro,
1998-10-30,-2.32, -0.25, -9.15, 3.37, 2.54, 11.79, repro,
1998-10-31,2.73, 2.30, -11.84, 3.04, 2.51, 10.52, repro,
1998-11-01,1.16, 1.85, 4.83, 2.95, 2.39, 10.21, repro,
1998-11-02,0.62, 1.23, -7.82, 3.24, 2.64, 11.64, repro,
1998-11-03,-1.40, 0.36, -6.64, 3.24, 2.49, 11.23, repro,
1998-11-04,3.34, 1.35, 13.99, 3.61, 3.07, 13.26, repro,
1998-11-05,-2.46, 0.72, 16.40, 3.29, 2.74, 11.81, repro,
1998-11-06,-2.92, 3.91, -2.82, 2.94, 2.51, 10.53, repro,
1998-11-07,-3.56, 2.16, -5.68, 2.93, 2.39, 10.67, repro,
1998-11-08,-2.31, 1.85, -15.41, 3.69, 2.93, 12.61, repro,
1998-11-09,-3.22, 0.16, 11.97, 2.87, 2.37, 10.14, repro,
1998-11-10,0.47, -0.30, 6.39, 2.93, 2.34, 10.71, repro,
1998-11-11,-0.80, -2.68, -2.76, 3.46, 2.61, 11.30, repro,
1998-11-12,-0.22, 4.39, 8.88, 2.94, 2.40, 10.11, repro,
1998-11-13,-3.32, 0.40, 15.09, 2.96, 2.44, 11.29, repro,
1998-11-14,0.23, 3.09, 6.23, 3.02, 2.42, 10.80, repro,
1998-11-15,-1.12, 3.08, 1.61, 3.15, 2.57, 10.93, repro,
1998-11-16,1.01, 1.79, 14.24, 3.06, 2.45, 11.15, repro,
1998-11-17,0.95, 0.47, 5.40, 3.22, 2.60, 11.51, repro,
1998-11-18,0.34, 2.57, -1.16, 3.15, 2.52, 10.80, repro,
1998-11-19,-1.03, 3.88, 2.74, 2.81, 2.37, 10.72, repro,
1998-11-20,-4.40, 0.92, 18.20, 2.92, 2.30, 10.26, repro,
1998-11-21,3.13, 2.67, 17.97, 3.08, 2.48, 10.58, repro,
1998-11-22,-1.51, 0.06, 5.40, 2.87, 2.32, 10.50, repro,
1998-11-23,-0.14, 3.30, 8.62, 3.00, 2.31, 10.37, repro,
1998-11-24,-2.97, 3.37, -1.58, 2.92, 2.36, 9.96, repro,
1998-11-25,-4.81, 2.05, 1.04, 2.83, 2.17, 9.82, repro,
1998-11-26,-1.95, 1.97, 4.61, 3.12, 2.46, 11.37, repro,
1998-11-27,-4.38, 1.43, 14.33, 2.90, 2.30, 9.95, repro,
1998-11-28,-1.56, 1.01, 12.63, 2.93, 2.24, 10.15, repro,
1998-11-29,-3.25, 2.19, 1.27, 2.90, 2.25, 10.29, repro,
1998-11-30,-1.58, 4.16, -6.07, 3.12, 2.47, 11.26, repro,